User: anonymous   Login
Location: Indian Hills
(32.9760°N, 85.9450°W)
Time: 09:51:48
(UTC+00:00)
Language:

Cosmos 2084 Rocket - Orbit

View from above orbital plane
View from above orbital plane
View from above satellite
View from above satellite

Ground track
Ground track

The orbit data is extracted from the following two-line orbital elements,

1 20666U 90055D   20056.12920690 -.00000030  00000-0  14991-4 0  9993
2 20666  62.7858 103.2397 0029965 307.1854  52.6505 14.92310238607854
Epoch (UTC): 25 February 2020 03:06:03
Eccentricity: 0.0029965
inclination: 62.7858°
perigee height: 570 km
apogee height: 611 km
right ascension of ascending node: 103.2397°
argument of perigee: 307.1854°
revolutions per day: 14.92310238
mean anomaly at epoch: 52.6505°
orbit number at epoch: 60785

The dashed part of the orbit path shows where the satellite is in the earth's shadow,  

DLR